Regional Weather Roundup
Issued by NWS Wakefield, VA

Home | Current Version | Previous Version | Graphics & Text | Print | Product List | Glossary On
Versions: 1 2 3 4 5 6 7 8 9 10 11 12 13 14 15 16 17 18 19 20 21 22 23 24 25 26 27 28 29 30 31 32 33 34 35 36 37 38 39 40 41 42 43 44 45 46 47 48 49 50
000
ASUS41 KAKQ 210310
RWRAKQ

REGIONAL WEATHER ROUNDUP
NATIONAL WEATHER SERVICE WAKEFIELD VA
1000 PM EST SAT DEC 20 2014

Note: "fair" indicates few or no clouds below 12,000 feet with no
significant weather and/or obstructions to visibility. * = Denotes
station may not report precipitation (e.g., rain,snow,etc.),
thunder or fog.

VAZ042-051-052>054-056-210400-
NORTHERN VIRGINIA

CITY           SKY/WX    TMP DP  RH WIND       PRES   REMARKS
WASH NATIONAL  MOCLDY    37  21  52 NW5       30.31S
DULLES         CLOUDY    30  25  81 CALM      30.30S
FORT BELVOIR   CLOUDY    30  24  79 CALM      30.31S
QUANTICO       MOCLDY    31  24  75 NW5       30.32S
FREDERICKSBRG* CLOUDY    35  28  76 CALM      30.30S
STAFFORD*      CLOUDY    32  25  76 CALM      30.34F
WARRENTON      CLOUDY    32  31  95 CALM      30.28F
CULPEPER*      CLOUDY    34  28  80 CALM      30.29F
MANASSAS*      CLOUDY    30  28  93 CALM      30.30S
LEESBURG*      CLOUDY    32  28  86 MISG      30.30S
WINCHESTER     CLOUDY    32  21  64 CALM      30.26S
FRONT ROYAL*   CLOUDY    30  25  80 CALM      30.26R
LURAY*         CLOUDY    34  28  80 CALM      30.25S
$$

VAZ048-049-060>072-079>083-210400-
CENTRAL AND SOUTH CENTRAL VIRGINIA

CITY           SKY/WX    TMP DP  RH WIND       PRES   REMARKS
RICHMOND       CLOUDY    36  23  59 CALM      30.30R
CHESTERFIELD*  CLOUDY    36  16  44 CALM      30.31R
PETERSBURG*    CLOUDY    35  30  83 CALM      30.31S
HANOVER        CLOUDY    34  25  69 CALM      30.31S
TAPPAHANNOCK*  CLOUDY    32  26  78 CALM      30.31S
QUINTON*       CLOUDY    34  24  66 CALM      30.30S
CHARLOTTSVILLE CLOUDY    33  25  72 CALM      30.27S
GORDONSVILLE*  CLOUDY    32  27  81 CALM      30.28S
ORANGE*        CLOUDY    34  30  86 CALM      30.29S
LOUISA*        CLOUDY    34  27  75 CALM      30.27R
BUMPASS*       CLOUDY    32  26  77 CALM      30.28S
FARMVILLE*     CLOUDY    37  26  67 CALM      30.27S
CREWE*         CLOUDY    34  27  75 CALM      30.28S
FORT PICKETT*  CLOUDY    35  26  70 CALM      30.28F
CHASE CITY*    CLOUDY    37  36  95 CALM      30.28S
CLARKSVILLE*   CLOUDY    34  32  93 CALM      30.28R
SOUTH HILL*    PTCLDY    30  28  91 CALM      30.34S
LAWRENCEVILLE* CLOUDY    34  29  83 CALM      30.28F
EMPORIA*       CLOUDY    34  32  93 CALM      30.32R
$$

VAZ088>098-210400-
SOUTHEAST VIRGINIA

CITY           SKY/WX    TMP DP  RH WIND       PRES   REMARKS
NORFOLK        PTCLDY    32  27  81 CALM      30.30S
VIRGINIA BEACH PTCLDY    31  27  85 CALM      30.29S
NORFOLK NAVAL  PTCLDY    36  29  75 CALM      30.31S
WEST POINT*    CLOUDY    36  26  66 CALM      30.32S
SALUDA*        CLOUDY    32  28  84 CALM      30.30F
NEWPORT NEWS   CLOUDY    37  29  72 CALM      30.30S
LANGLEY AFB    CLOUDY    34  30  85 CALM      30.31S
FORT EUSTIS    CLOUDY    36  27  68 VRB1      30.29S
WILLIAMSBURG*  CLOUDY    37  30  75 CALM      30.31S
HR EXEC AP*    CLEAR     27  25  93 CALM      30.32S
FRANKLIN*      MOCLDY    28  28 100 CALM      30.30S
WAKEFIELD      PTCLDY    32  27  81 CALM      30.30S
$$

VAZ020-022-025-037-045-210400-
WEST CENTRAL AND SOUTHWEST VIRGINIA

CITY           SKY/WX    TMP DP  RH WIND       PRES   REMARKS
STAUNTON*      CLOUDY    33  26  75 CALM      30.25S
WAYNESBORO*    CLOUDY    32  24  72 CALM      30.22S
HOT SPRINGS VA CLOUDY    30  30 100 W7        30.10S
LYNCHBURG      CLOUDY    33  29  85 CALM      30.27R
DANVILLE       CLOUDY    37  31  78 CALM      30.28S
SOUTH BOSTON*  CLOUDY    35  32  87 CALM      30.28S
MARTINSVILLE   CLOUDY    37  32  81 CALM      30.28S
ROANOKE        CLOUDY    36  25  64 SE5       30.26S
BLACKSBURG     CLOUDY    34  31  87 CALM      30.23R
DUBLIN*        DRIZZLE   37  34  89 CALM      30.21S
MARION*        RAIN      37  36  95 SW3       30.21S
HILLSVILLE*    CLOUDY    34  31  88 CALM      30.18S
RICHLANDS*     CLOUDY    33  31  90 CALM      30.19S
WISE*          CLOUDY    34  30  86 CALM      30.20S
ABINGDON*      CLOUDY    40  38  95 W3        30.21R FOG
$$

MDZ021>025-VAZ099-100-210400-
SOUTHERN MARYLAND AND THE DELMARVA PENINSULA

CITY           SKY/WX    TMP DP  RH WIND       PRES   REMARKS
PATUXENT RIVER PTCLDY    29  22  75 CALM      30.30S
BAY BRIDGE APT   N/A     34  27  75 CALM      30.31S
LEONARDTOWN    PTCLDY    30  25  80 CALM      30.32S
DOVER          CLOUDY    30  26  83 W1        30.28R
GEORGETOWN     CLOUDY    29  25  85 CALM      30.30S
EASTON         CLOUDY    33  29  86 CALM      30.34
CAMBRIDGE      MOCLDY    32  30  93 CALM      30.30S
SALISBURY      PTCLDY    30  24  78 CALM      30.31R
OCEAN CITY     PTCLDY    26  23  88 CALM      30.30S
WALLOPS ISLAND PTCLDY    30  25  81 N3        30.31S
ACCOMACK*      PTCLDY    28  25  86 CALM      30.29F
$$

NCZ012>017-030>032-210400-
NORTH CENTRAL AND EASTERN NORTH CAROLINA

CITY           SKY/WX    TMP DP  RH WIND       PRES   REMARKS
ROANOKE RAPIDS PTCLDY    34  32  93 CALM      30.30R
RALEIGH        CLOUDY    38  34  85 CALM      30.28S FOG
ELIZABETH CITY CLEAR     40  30  67 E3        30.30S
AHOSKIE*       CLOUDY    33  31  91 CALM      30.30S
EDENTON*       PTCLDY    37  33  84 CALM      30.29F
CURRITUCK*     CLEAR     35  30  83 CALM      30.30F
KILL DEVIL HLS CLEAR     40  33  76 CALM      30.27S
MANTEO         CLEAR     39  33  80 N6        30.29S
CAPE HATTERAS  MOCLDY    43  37  79 NE7       30.27S
TARBORO*       CLOUDY    37  36  93 CALM      30.30S
GOLDSBORO      NOT AVBL
WASHINGTON     CLOUDY    39  33  78 CALM      30.29S
GREENVILLE     CLOUDY    39  36  87 CALM      30.30R
NEW BERN       CLEAR     40  34  79 NE3       30.29S
WILMINGTON     CLOUDY    39  37  92 NE6       30.27R
$$

VAZ048-210400-
ELSEWHERE

CITY           SKY/WX    TMP DP  RH WIND       PRES   REMARKS
HARRISBURG PA  MOCLDY    27  22  81 NW5       30.30R
BALTIMORE      CLOUDY    34  24  67 CALM      30.29S
ANNAPOLIS      CLOUDY    36  25  64 CALM      30.30S
ANDREWS AFB    CLOUDY    32  23  70 CALM      30.29S
PHILADELPHIA   CLOUDY    34  22  61 SE5       30.31S
HENDERSON NC   PTCLDY    32  31  95 CALM      30.28S FOG
GREENSBORO     CLOUDY    38  34  85 CALM      30.24F
ROCKY MOUNT    CLOUDY    38  35  89 CALM      30.29S
$$

VAZ100-210400-
MARINE

STATION/POSITION TIME  TEMP    WIND        PRES    WAVE   SWELL
                       AIR SEA DIR/SP/G            HT/PER HT/PER
                 (UTC) (F)     (DEG/KT/KT) (MB)    (FT/S) (FT/S)
CAPE MAY NJ      0300   31 43   60/  2/  3 1025.7R
LEWES DE         0300   33 41  230/  1/  2 1025.7F
15NM E FENWICK I 0300   36 45              1025.8R   1/11
OCEAN-CITY-INLET 0300   33 44  340/  2/  3 1025.8R
WACHAPREAGUE VA  0300   29 41   CALM  /  1 1025.9F
THOMAS POINT MD  0300   36 41   80/  4/  4 1027.1F
GOOSES REEF MD   0300   36     VRB  6/  6  1025.1S   0
COVE POINT MD    0300   34     270/  1/  2 1025.9F
SOLOMONS ISLAND  0300      43                N/A
BISHOPS HEAD MD  0300   34 36  360/  2/  2 1025.6S
POTOMAC MD       0300   36 43   10/  6/  6 1025.0F   0
CAMBRIDGE MD     0300   34 40  220/  1/  2 1025.9F
LEWISETTA VA     0300   35 41     CALM     1025.7F
RAPPAHANNOCK LGT 0300           10/  4/  5 1026.2F
STINGRAY PT      0300   37 44  350/  4/  6 1026.4S   0
YORK RVR RNG VA  0300   38      30/  5/  6 1025.4S
YORKTOWN VA      0300   37 45   20/  5/  6 1025.7F
JAMESTOWN VA     0300   38 45   70/  4/  4   N/A     1
DOMINION TERM VA 0300   38      30/  2/  3 1025.9S
KIPTOPEKE VA     0300      49   30/  5/  6   N/A
CHES BAY BRIDGE  0300   39 46  360/  5/  6 1025.4R
CAPE HENRY VA    0300   38      10/  7/  8 1024.5R
CHESAPEAKE LGHT  0200   39     350/  7/  9 1026.4S
WILLOUBY STN VA  0300   38      10/  4/  5 1026.3R
S CRANEY ISL VA  0300           60/  3/  3 1025.9R
CAPE HENRY BUOY  0200      50                N/A     2/ 5
1ST LANDING BUOY 0300   39 45   20/  6/  8 1025.4R   1
CAPE CHARLES BUO 0200      47                N/A     1/12   2/12
64NM E OF VA BCH 0300   43 54  350/ 10/ 14 1024.9S   2/ 5   2/ 5
DUCK PIER NC     0300   41 46  320/  6/  8 1024.8S
44100 DUCK FRF   0300      52                N/A     2/ 6
44056 DUCK FRF   0300      46                N/A     2/ 5
OREGON INLET NC  0300   41 48  340/  4/  5 1025.2F
HATTERAS NC      0300   45 51   30/ 10/ 12 1025.1R
DIAMOND SHLS NC  0300   48                 1024.7F   3/ 4
CAPE LOOKOUT NC  0200   44      20/ 12/ 14 1024.5S
$$



USA.gov is the U.S. government's official web portal to all federal, state and local government web resources and services.